Location: Misciano
(43.5000°N, 11.9500°E)
Time: 07:59:54
(UTC+00:00)

Cosmos 2297 Rocket - Pass Details

Date: 13 August 2020
Orbit: 838 x 845 km, 71.0° (Epoch: 27 September)

Event Time Altitude Azimuth Distance (km) Brightness Sun altitude
Exits shadow 23:02:10 34° 58° (ENE) 1,354 3.4 -32.1°
Drops below altitude 10° 23:05:36 10° 35° (NE) 2,464 5.2 -32.2°
Sets 23:08:07 0° 30° (NNE) 3,404 6.1 -32.2°
